#timestamp,LO_Frequency,Hit,StdDev 
1654783215.7,286047000.6,P
1654783235.5,286047000.7,N
1654783255.3,286046998.5,P
1654783275.2,286046998.9,N
1654783295.0,286046998.2,N
1654783295.9,286046998.2,N
1654783315.8,286046998.1,N
1654783335.6,286046998.1,N
1654783355.4,286046999.7,N
1654783375.3,286047006.0,Y
1654783395.1,286047002.2,P
1654783415.8,286047000.0,N
1654783435.7,286046998.1,N
1654783455.5,286047000.5,N
1654783475.4,286047002.5,N
1654783495.2,286047001.5,N
1654783515.0,286047003.9,N
1654783515.9,286047003.9,N
1654783535.8,286047003.7,N
1654783555.6,286047003.6,N
1654783575.4,286047005.7,N
1654783595.3,286047002.9,N
1654783615.1,286047005.7,N
1654783635.9,286047005.2,N
1654783655.7,286047004.7,N
1654783675.5,286047005.7,N
1654783695.4,286047002.9,N
1654783715.2,286047001.7,N
1654783735.0,286047001.3,N
1654783735.9,286047001.3,N
1654783755.8,286047003.7,N
1654783775.6,286047003.8,N
1654783795.5,286047001.7,N
1654783815.3,286047001.8,N
1654783835.1,286047000.1,N
1654783855.9,286047000.2,N
1654783875.7,286047000.2,N
1654783895.5,286047002.6,N
1654783915.4,286047000.1,N
1654783935.2,286047001.0,N
1654783955.1,286047000.5,N
1654783956.0,286047000.5,N
1654783975.8,286047000.3,N
1654783995.6,286047001.0,N
1654784015.5,286046999.7,N
1654784035.3,286047000.8,N
1654784055.2,286047001.0,N
1654784075.9,286046998.5,N
1654784095.7,286046998.5,N
1654784115.6,286047000.9,N
1654784135.4,286047000.9,N
1654784155.2,286047000.2,N
1654784175.1,286046998.4,N
1654784176.0,286046998.4,N
1654784195.8,286046998.8,N
1654784215.7,286046999.3,N
1654784235.5,286046998.4,N
1654784255.3,286046998.4,N
1654784275.2,286046998.7,N
1654784295.0,286046998.5,N
1654784295.9,286046998.5,N
1654784315.8,286046998.4,N
1654784335.6,286046998.4,N
1654784355.4,286046999.2,N
1654784375.3,286046999.5,N
1654784395.1,286046999.1,N
1654784415.8,286046997.0,N
1654784435.7,286046996.7,N
1654784455.5,286046997.0,N
1654784475.4,286046997.1,N
1654784495.2,286046995.3,Y
1654784545.1,286046996.6,E
1654784555.9,286046998.4,N
1654784575.7,286047000.9,P
1654784595.6,286047000.1,N
1654784615.4,286047000.3,N
1654784635.2,286047000.1,N
1654784655.1,286047000.3,N
1654784656.0,286047000.3,N
1654784675.8,286047001.5,N
1654784695.7,286047001.9,N
1654784715.5,286047002.6,N
1654784735.3,286047002.8,N
1654784755.2,286047000.7,N
1654784775.0,286047000.3,N
1654784775.9,286047000.3,N
1654784795.8,286047000.3,N
1654784815.6,286046998.2,N
1654784835.4,286047001.2,N
1654784855.3,286047000.8,N
1654784875.1,286047001.1,N
1654784895.8,286047000.8,N
1654784915.7,286047000.9,N
1654784935.5,286047000.5,N
1654784955.4,286047001.0,N
1654784975.2,286047001.2,N
1654784995.0,286047001.2,N
1654784995.9,286047001.2,N
1654785015.8,286046998.1,N
1654785035.6,286046998.5,N
1654785055.5,286047000.8,N
1654785075.3,286047000.3,N
1654785095.1,286047001.1,N
1654785115.9,286046998.7,N
1654785135.7,286046998.3,N
1654785155.5,286047007.5,Y
1654785175.4,286047005.7,P
1654785195.2,286047001.9,N
1654785215.1,286047002.4,N
1654785216.0,286047002.4,N
1654785235.8,286047002.3,N
1654785255.6,286047002.5,N
1654785275.5,286047000.8,N
1654785295.3,286047001.0,N
1654785315.1,286047001.2,N
1654785335.9,286047000.7,N
1654785355.7,286046999.1,N
1654785375.6,286046998.1,N
1654785395.4,286046998.3,N
1654785415.2,286046999.2,N
1654785435.1,286047000.3,N
1654785436.0,286047000.3,N
1654785455.8,286047000.5,N
1654785475.7,286047000.8,N
1654785495.5,286047001.1,N
1654785515.3,286046998.1,N
1654785535.2,286047000.9,N
1654785555.0,286047001.0,N
1654785555.9,286047001.0,N
1654785575.7,286046999.4,N
1654785595.6,286046998.2,N
1654785615.4,286047001.1,N
1654785635.3,286047000.7,N
1654785655.1,286047000.8,N
1654785656.0,286047000.8,N
1654785675.8,286047001.0,N
1654785695.7,286047002.4,N
1654785715.5,286047001.9,N
1654785735.3,286047004.2,Y
1654785755.2,286047002.2,P
1654785775.0,286047002.6,P
1654785775.9,286047002.6,N
1654785795.8,286047002.1,N
1654785815.6,286047004.3,Y
1654785835.4,286046999.9,P
1654785855.3,286047000.6,N
1654785875.1,286047000.2,N
1654785895.9,286046999.9,N
1654785915.7,286047000.3,N
1654785935.5,286047001.0,N
1654785955.4,286047001.1,N
1654785975.2,286046999.1,N
1654785995.0,286046996.6,Y
1654785995.9,286046996.6,P
1654786015.8,286046996.6,N
1654786035.6,286046998.9,N
1654786055.5,286046997.2,N
1654786075.3,286046995.0,Y
1654786095.1,286046998.3,P
1654786115.9,286047000.9,P
1654786135.7,286047000.1,N
1654786155.6,286047001.0,N
1654786175.4,286046998.4,N
1654786195.2,286047000.6,N
1654786215.1,286046998.2,N
1654786216.0,286046998.2,N
1654786235.8,286047002.8,N
1654786255.7,286047000.3,N
1654786275.5,286047002.8,N
1654786295.3,286047000.2,N
1654786315.2,286047001.0,N
1654786335.9,286047000.0,N
1654786355.7,286047000.0,N
1654786375.6,286046999.7,N
1654786395.4,286047002.8,N
1654786415.3,286047002.1,N
1654786435.1,286047002.5,N
1654786436.0,286047002.5,N
1654786455.8,286047000.6,N
1654786475.7,286047000.9,N
1654786495.5,286047000.5,N
1654786515.3,286047000.8,N
1654786535.2,286047000.7,N
1654786555.0,286046998.5,N
1654786555.9,286046998.5,N
1654786575.8,286046999.3,N
1654786595.6,286047001.2,N
1654786615.4,286047001.1,N
1654786635.3,286047001.0,N
1654786655.1,286047000.8,N
1654786675.8,286047001.2,N
1654786695.7,286046998.6,N
1654786715.5,286046998.6,N
1654786735.4,286046998.8,N
1654786755.2,286046998.6,N
1654786775.0,286046998.2,N
1654786775.9,286046998.2,N
1654786795.8,286046998.2,N
